This is the latest recevied weather packets stored in our database for station/object KY4EF. If no packets are shown the sender has not sent any weather packets the latest 10 day(s).
| Time | Temp. | Humidity | Pressure | Rain* | Wind** | Luminosity | Snow |
|---|---|---|---|---|---|---|---|
| 1777855632 | 11.11° C | 67% | 1015.9 hPa | 0 mm | - | 0 W/m² | - |
| 1777855329 | 11.67° C | 65% | 1015.8 hPa | 0 mm | - | 0 W/m² | - |
| 1777855026 | 11.67° C | 62% | 1015.7 hPa | 0 mm | - | 0 W/m² | - |
| 1777854723 | 11.67° C | 62% | 1015.7 hPa | 0 mm | - | 1 W/m² | - |
| 1777854419 | 12.22° C | 59% | 1015.5 hPa | 0 mm | - | 1 W/m² | - |
| 1777854116 | 12.78° C | 58% | 1015.7 hPa | 0 mm | - | 2 W/m² | - |
| 1777853809 | 12.78° C | 58% | 1015.3 hPa | 0 mm | - | 4 W/m² | - |
| 1777853505 | 13.33° C | 57% | 1015.2 hPa | 0 mm | - | 6 W/m² | - |
| 1777853202 | 13.33° C | 54% | 1015.2 hPa | 0 mm | - | 8 W/m² | - |
| 1777852900 | 13.89° C | 52% | 1015.1 hPa | 0 mm | - | 10 W/m² | - |
| 1777852598 | 15° C | 49% | 1015.3 hPa | 0 mm | - | 12 W/m² | - |
| 1777852294 | 15° C | 45% | 1015.2 hPa | 0 mm | - | 14 W/m² | - |
| 1777851992 | 15.56° C | 45% | 1015.3 hPa | 0 mm | - | 16 W/m² | - |
| 1777851690 | 15.56° C | 44% | 1015.3 hPa | 0 mm | - | 18 W/m² | - |
| 1777851387 | 15.56° C | 44% | 1015.3 hPa | 0 mm | - | 19 W/m² | - |
| 1777851082 | 16.11° C | 43% | 1015.1 hPa | 0 mm | - | 21 W/m² | - |
| 1777850780 | 16.11° C | 43% | 1015.2 hPa | 0 mm | - | 23 W/m² | - |
| 1777850477 | 16.11° C | 44% | 1015.2 hPa | 0 mm | - | 25 W/m² | - |
| 1777850175 | 16.11° C | 42% | 1015.1 hPa | 0 mm | - | 25 W/m² | - |
| 1777849871 | 16.67° C | 42% | 1015.3 hPa | 0 mm | - | 26 W/m² | - |
| 1777849568 | 16.67° C | 42% | 1015.3 hPa | 0 mm | - | 33 W/m² | - |
| 1777849265 | 16.67° C | 41% | 1015.3 hPa | 0 mm | - | 29 W/m² | - |
| 1777848963 | 16.67° C | 42% | 1015.3 hPa | 0 mm | - | 30 W/m² | - |
| 1777848657 | 16.67° C | 42% | 1015.3 hPa | 0 mm | - | 30 W/m² | - |
| 1777848355 | 16.67° C | 40% | 1015.1 hPa | 0 mm | - | 32 W/m² | - |
* Rain latest hour (hover to see other rain measurements)
** Current wind speed in m/s (hover to see current wind gust speed)